FW9346 Weather Reports


Display with metric or nautical units.
time (UTC)temp
F
wind
direction
speed
MPH
gust
MPH
rain 1hr
in
rain 24hr
in
rain mn
in
humidity
%
barometer
mb
20260906150045 75 336 3.0 10.0 0.00 0.00 0.00 84 1017.2
20260906144553 75 344 2.0 5.0 0.00 0.00 0.00 84 1016.9
20260906143050 75 360 2.0 8.0 0.00 0.00 0.00 84 1017.1
20260906141550 75 24 3.0 8.0 0.00 0.00 0.00 84 1017.1
20260906140051 75 342 3.0 7.0 0.00 0.00 0.00 84 1017.0
20260906134602 75 343 3.0 10.0 0.00 0.00 0.00 85 1017.0
20260906133056 75 338 4.0 9.0 0.00 0.00 0.00 85 1016.8
20260906131601 75 318 4.0 12.0 0.00 0.00 0.00 84 1016.7
20260906130057 75 344 6.0 11.0 0.00 0.00 0.00 84 1016.6
20260906124558 74 331 6.0 10.0 0.00 0.00 0.00 86 1016.6
20260906123054 74 308 5.0 14.0 0.00 0.00 0.00 85 1016.5
20260906121604 72 322 12.0 24.0 0.00 0.00 0.00 90 1016.5
20260906120104 72 166 1.0 5.0 0.00 0.00 0.00 90 1015.2
20260906114544 72 147 1.0 6.0 0.00 0.00 0.00 90 1015.1
20260906113056 72 138 3.0 5.0 0.00 0.00 0.00 90 1014.9
20260906111549 72 130 2.0 7.0 0.00 0.00 0.00 90 1014.5
20260906110049 72 124 3.0 7.0 0.00 0.00 0.00 90 1014.5
20260906104545 72 140 2.0 5.0 0.00 0.00 0.00 90 1014.4
20260906103052 72 124 2.0 4.0 0.00 0.00 0.00 90 1014.5
20260906101553 72 128 1.0 4.0 0.00 0.00 0.00 90 1014.5
20260906100049 71 138 2.0 4.0 0.00 0.00 0.00 90 1014.4
20260906094544 72 125 2.0 5.0 0.00 0.00 0.00 90 1014.2
20260906093056 72 133 2.0 4.0 0.00 0.00 0.00 90 1014.1
20260906091549 72 136 1.0 3.0 0.00 0.00 0.00 90 1013.9
20260906090052 72 127 1.0 4.0 0.00 0.00 0.00 89 1014.0
20260906084545 72 153 1.0 5.0 0.00 0.00 0.00 89 1014.1
20260906083044 72 149 1.0 4.0 0.00 0.00 0.00 89 1014.2
20260906081553 72 137 1.0 4.0 0.00 0.00 0.00 89 1014.1
20260906080052 73 151 1.0 5.0 0.00 0.00 0.00 89 1014.1
20260906074550 73 140 2.0 6.0 0.00 0.00 0.00 89 1014.2
20260906073055 73 135 2.0 5.0 0.00 0.00 0.00 89 1014.2
20260906071552 73 137 1.0 4.0 0.00 0.00 0.00 89 1014.2
20260906070051 73 153 1.0 5.0 0.00 0.00 0.00 89 1014.2
20260906064549 73 159 1.0 5.0 0.00 0.00 0.00 89 1014.0
20260906063056 74 134 2.0 7.0 0.00 0.00 0.00 88 1013.8
20260906061601 74 145 2.0 7.0 0.00 0.00 0.00 87 1013.9
20260906060057 75 146 2.0 7.0 0.00 0.00 0.00 86 1014.2
20260906054549 75 147 2.0 6.0 0.00 0.00 0.00 87 1014.2
20260906053055 75 125 2.0 5.0 0.00 0.00 0.00 86 1014.2
20260906051606 76 135 1.0 6.0 0.00 0.00 0.00 86 1014.2
20260906050049 76 101 1.0 4.0 0.00 0.00 0.00 85 1014.2
20260906044603 76 114 1.0 6.0 0.00 0.00 0.00 85 1014.2
20260906043053 77 138 1.0 4.0 0.00 0.00 0.00 85 1014.2
20260906041554 77 0 1.0 4.0 0.00 0.00 0.00 84 1014.1
20260906040052 77 116 2.0 7.0 0.00 0.00 0.00 84 1014.1
20260906034550 78 123 2.0 7.0 0.00 0.00 0.00 83 1014.0
20260906033056 79 192 1.0 6.0 0.00 0.00 0.00 81 1013.7
20260906031550 80 148 2.0 5.0 0.00 0.00 0.00 79 1013.7
20260906030050 82 186 3.0 9.0 0.00 0.00 0.00 77 1013.6
20260906024555 82 165 7.0 11.0 0.00 0.00 0.00 77 1013.4
20260906023053 81 175 6.0 10.0 0.00 0.00 0.00 79 1013.0
20260906021551 81 155 4.0 6.0 0.00 0.00 0.00 80 1013.0
20260906020049 81 148 2.0 6.0 0.00 0.00 0.00 79 1013.0
20260906014604 82 161 2.0 5.0 0.00 0.00 0.00 78 1012.7
20260906013054 83 244 2.0 7.0 0.00 0.00 0.00 75 1012.3
20260906011554 84 134 1.0 6.0 0.00 0.00 0.00 73 1012.1
20260906004552 87 152 1.0 5.0 0.00 0.00 0.00 69 1012.2
20260906003050 89 131 3.0 8.0 0.00 0.00 0.00 67 1012.1
20260906001549 91 167 3.0 8.0 0.00 0.00 0.00 65 1012.1
20260906000045 92 166 2.0 10.0 0.00 0.00 0.00 61 1012.0
20260905234545 93 182 7.0 15.0 0.00 0.00 0.00 59 1012.1
20260905233051 94 192 9.0 17.0 0.00 0.00 0.00 57 1011.8
20260905231548 95 168 8.0 17.0 0.00 0.00 0.00 55 1011.8
20260905230045 95 232 9.0 16.0 0.00 0.00 0.00 55 1011.6
20260905224552 95 188 9.0 16.0 0.00 0.00 0.00 55 1011.7
20260905223051 95 115 5.0 18.0 0.00 0.00 0.00 56 1011.9
20260905221547 95 128 10.0 15.0 0.00 0.00 0.00 55 1012.1
20260905220053 95 137 6.0 12.0 0.00 0.00 0.00 55 1012.2
20260905214549 95 188 8.0 15.0 0.00 0.00 0.00 56 1012.3
20260905213048 95 134 5.0 17.0 0.00 0.00 0.00 57 1012.6
20260905211553 95 193 8.0 14.0 0.00 0.00 0.00 55 1012.7
20260905210107 95 192 8.0 17.0 0.00 0.00 0.00 55 1012.9
20260905204600 94 162 6.0 14.0 0.00 0.00 0.00 58 1013.2
20260905203058 95 63 5.0 15.0 0.00 0.00 0.00 57 1013.4
20260905201552 94 109 5.0 16.0 0.00 0.00 0.00 57 1013.7
20260905200056 94 138 6.0 13.0 0.00 0.00 0.00 60 1013.8
20260905194548 93 129 8.0 13.0 0.00 0.00 0.00 61 1014.0
20260905193054 93 181 6.0 13.0 0.00 0.00 0.00 62 1014.2
20260905191551 93 111 5.0 12.0 0.00 0.00 0.00 62 1014.4
20260905190058 92 96 7.0 13.0 0.00 0.00 0.00 63 1014.6
20260905184554 91 103 9.0 15.0 0.00 0.00 0.00 64 1014.6
20260905183109 90 122 5.0 12.0 0.00 0.00 0.00 65 1014.8
20260905181552 90 101 7.0 12.0 0.00 0.00 0.00 63 1014.8
20260905180050 90 134 7.0 12.0 0.00 0.00 0.00 63 1014.8
20260905174555 90 133 5.0 9.0 0.00 0.00 0.00 65 1015.0
20260905173051 90 92 7.0 12.0 0.00 0.00 0.00 63 1015.3
20260905171552 90 93 5.0 7.0 0.00 0.00 0.00 59 1015.4
20260905170052 89 53 1.0 9.0 0.00 0.00 0.00 65 1015.3
20260905164545 90 63 3.0 8.0 0.00 0.00 0.00 64 1015.2
20260905163056 89 346 0.0 3.0 0.00 0.00 0.00 65 1015.4
20260905161550 86 0 0.0 4.0 0.00 0.00 0.00 67 1015.0
20260905160052 85 0 1.0 6.0 0.00 0.00 0.00 71 1014.7
20260905154548 84 245 3.0 9.0 0.00 0.00 0.00 73 1014.4
20260905153106 84 262 5.0 11.0 0.00 0.00 0.00 74 1014.2
20260905151552 83 267 5.0 10.0 0.00 0.00 0.00 76 1014.1